Location: Marse
(42.1502°N, 110.9866°W)
Time: 03:20:43
(UTC+00:00)

ZACube-1 - Visible Passes

Search period start: 28 June 2022 00:00
Search period end: 08 July 2022 00:00
Orbit: 581 x 662 km, 97.6° (Epoch: 27 June)

Date Brightness Start Highest point End Pass type
(mag) Time Alt. Az. Time Alt. Az. Time Alt. Az.
28 Jun ? 11:02:48 10° NNE 11:07:10 54° E 11:11:35 10° S visible
30 Jun ? 10:04:12 10° ENE 10:06:16 13° E 10:08:21 10° ESE visible
01 Jul ? 10:20:57 10° NE 10:24:15 20° E 10:27:35 10° SE visible
02 Jul ? 10:38:13 10° NE 10:42:11 30° E 10:46:11 10° SSE visible
03 Jul ? 10:55:44 10° NNE 11:00:04 46° E 11:04:27 10° S visible
04 Jul ? 11:13:24 10° NNE 11:17:55 73° ESE 11:22:28 10° S visible
05 Jul ? 09:57:46 10° ENE 09:59:05 11° E 10:00:25 10° ESE visible
06 Jul ? 10:14:04 10° NE 10:17:05 17° E 10:20:06 10° SE visible
07 Jul ? 10:31:12 10° NE 10:35:01 26° E 10:38:51 10° SSE visible
